BOX752 LIMC-EDDP

Flight info

Callsign BOX752
Flight time 1h 15m
Altitude 30000
Route PEPAG DCT ABESI N851 UTAVO DCT ROLSA/N0484F310 DCT LOKTA DCT ETAGO DCT IBAGA T435 PIBAD T954 GOXLI GOXLI1V
Aircraft B77L/H-SDE1E2E3FGHIJ2J3J4J5M1RWXY/LB1D1

Departure

Time 2026-05-05 12:20
Airport Milan Malpensa International Airport (LIMC)

Arrival

Time 2026-05-05 13:35
Airport Leipzig/Halle Airport (EDDP)
Time Latitude Longitude Altitude Speed Heading
2026-05-05 11:36 45.62137 8.71820 746 ft 0 kts 259°
2026-05-05 12:05 45.62141 8.71853 744 ft 4 kts 258°
2026-05-05 12:05 45.62148 8.71891 741 ft 4 kts 254°
2026-05-05 12:05 45.62156 8.71927 741 ft 4 kts 245°
2026-05-05 12:05 45.62170 8.71958 741 ft 4 kts 213°
2026-05-05 12:06 45.62166 8.71961 741 ft 4 kts 187°
2026-05-05 12:06 45.62140 8.71966 743 ft 4 kts 167°
2026-05-05 12:06 45.62114 8.71977 744 ft 4 kts 165°
2026-05-05 12:06 45.62087 8.71985 744 ft 4 kts 168°
2026-05-05 12:07 45.62079 8.71988 742 ft 0 kts 169°
2026-05-05 12:11 45.62069 8.71991 742 ft 4 kts 168°
2026-05-05 12:11 45.62039 8.72064 743 ft 12 kts 88°
2026-05-05 12:12 45.62069 8.72167 742 ft 10 kts 37°
2026-05-05 12:12 45.62140 8.72171 744 ft 12 kts 350°
2026-05-05 12:12 45.62197 8.72199 743 ft 9 kts 52°
2026-05-05 12:12 45.62216 8.72279 743 ft 9 kts 77°
2026-05-05 12:13 45.62230 8.72380 743 ft 14 kts 79°
2026-05-05 12:13 45.62253 8.72547 742 ft 21 kts 79°
2026-05-05 12:13 45.62281 8.72756 742 ft 21 kts 79°
2026-05-05 12:13 45.62306 8.72942 743 ft 9 kts 86°
2026-05-05 12:14 45.62272 8.73013 743 ft 9 kts 147°
2026-05-05 12:14 45.62213 8.73042 745 ft 9 kts 167°
2026-05-05 12:14 45.62145 8.73062 744 ft 12 kts 169°
2026-05-05 12:14 45.62046 8.73090 744 ft 17 kts 168°
2026-05-05 12:15 45.61918 8.73126 744 ft 19 kts 169°
2026-05-05 12:15 45.61834 8.73149 744 ft 9 kts 169°
2026-05-05 12:15 45.61763 8.73179 743 ft 10 kts 149°
2026-05-05 12:15 45.61721 8.73246 742 ft 11 kts 124°
2026-05-05 12:16 45.61675 8.73346 743 ft 12 kts 123°
2026-05-05 12:16 45.61631 8.73440 743 ft 13 kts 124°
2026-05-05 12:16 45.61587 8.73561 743 ft 8 kts 103°
2026-05-05 12:16 45.61587 8.73631 745 ft 10 kts 82°
2026-05-05 12:17 45.61633 8.73724 740 ft 14 kts 20°
2026-05-05 12:17 45.61691 8.73717 742 ft 0 kts 349°
2026-05-05 12:18 45.61693 8.73716 742 ft 0 kts 349°
2026-05-05 12:19 45.61864 8.73670 744 ft 58 kts 349°
2026-05-05 12:19 45.62469 8.73501 742 ft 117 kts 348°
2026-05-05 12:19 45.63443 8.73274 746 ft 164 kts 354°
2026-05-05 12:19 45.64633 8.73117 1113 ft 168 kts 352°
2026-05-05 12:20 45.65778 8.72779 1716 ft 173 kts 346°
2026-05-05 12:20 45.67015 8.72594 2025 ft 187 kts
2026-05-05 12:20 45.68339 8.72651 2535 ft 196 kts
2026-05-05 12:20 45.69789 8.72644 2769 ft 220 kts
2026-05-05 12:21 45.71356 8.72659 3249 ft 231 kts
2026-05-05 12:21 45.72818 8.73548 3690 ft 232 kts 50°
2026-05-05 12:21 45.73573 8.75505 4407 ft 224 kts 74°
2026-05-05 12:21 45.74104 8.77620 5041 ft 228 kts 72°
2026-05-05 12:22 45.74548 8.79774 5712 ft 224 kts 91°
2026-05-05 12:22 45.74230 8.81971 6036 ft 234 kts 111°
2026-05-05 12:22 45.73672 8.84149 6000 ft 230 kts 114°
2026-05-05 12:22 45.72858 8.86135 6136 ft 238 kts 126°
2026-05-05 12:23 45.71827 8.88114 6539 ft 255 kts 127°
2026-05-05 12:23 45.70748 8.90151 7137 ft 263 kts 128°
2026-05-05 12:23 45.69628 8.92304 7798 ft 270 kts 128°
2026-05-05 12:23 45.68504 8.94491 8005 ft 275 kts 128°
2026-05-05 12:24 45.67392 8.96671 8016 ft 274 kts 126°
2026-05-05 12:24 45.66692 8.99174 8426 ft 280 kts 96°
2026-05-05 12:24 45.66983 9.01966 8971 ft 293 kts 69°
2026-05-05 12:24 45.68116 9.04424 9552 ft 303 kts 44°
2026-05-05 12:25 45.69897 9.06037 10121 ft 308 kts 17°
2026-05-05 12:25 45.72037 9.06506 10448 ft 320 kts 359°
2026-05-05 12:25 45.74340 9.06558 10626 ft 343 kts 358°
2026-05-05 12:25 45.76806 9.06570 10815 ft 367 kts 358°
2026-05-05 12:26 45.79430 9.06589 11190 ft 384 kts 358°
2026-05-05 12:26 45.82137 9.06633 11810 ft 395 kts 359°
2026-05-05 12:26 45.84908 9.06698 12632 ft 401 kts 359°
2026-05-05 12:26 45.87702 9.06775 13495 ft 406 kts 359°
2026-05-05 12:27 45.90541 9.06864 14214 ft 410 kts 359°
2026-05-05 12:27 45.93415 9.06952 14956 ft 415 kts 359°
2026-05-05 12:27 45.96316 9.07034 15706 ft 419 kts 358°
2026-05-05 12:27 45.99247 9.07014 16436 ft 423 kts 353°
2026-05-05 12:28 46.02185 9.06593 17188 ft 427 kts 350°
2026-05-05 12:28 46.05153 9.06077 17978 ft 431 kts 350°
2026-05-05 12:28 46.08151 9.05563 18683 ft 436 kts 351°
2026-05-05 12:28 46.11175 9.05065 19336 ft 441 kts 351°
2026-05-05 12:29 46.14242 9.04574 19971 ft 446 kts 351°
2026-05-05 12:29 46.17306 9.04100 20533 ft 450 kts 351°
2026-05-05 12:29 46.20447 9.03660 21138 ft 456 kts 352°
2026-05-05 12:29 46.23618 9.03240 21758 ft 460 kts 352°
2026-05-05 12:30 46.26825 9.02820 22401 ft 464 kts 352°
2026-05-05 12:30 46.30054 9.02394 23025 ft 469 kts 352°
2026-05-05 12:30 46.33318 9.01956 23607 ft 473 kts 352°
2026-05-05 12:30 46.36612 9.01510 24102 ft 478 kts 352°
2026-05-05 12:31 46.39931 9.01061 24595 ft 479 kts 352°
2026-05-05 12:31 46.43259 9.00610 25095 ft 483 kts 352°
2026-05-05 12:31 46.46617 9.00158 25534 ft 487 kts 352°
2026-05-05 12:31 46.50004 8.99698 26008 ft 490 kts 352°
2026-05-05 12:32 46.53423 8.99231 26512 ft 493 kts 352°
2026-05-05 12:32 46.56852 8.98769 27011 ft 497 kts 352°
2026-05-05 12:32 46.60307 8.98304 27479 ft 500 kts 351°
2026-05-05 12:32 46.63780 8.97836 27917 ft 504 kts 352°
2026-05-05 12:33 46.67291 8.97361 28361 ft 508 kts 352°
2026-05-05 12:33 46.70835 8.96886 28758 ft 512 kts 353°
2026-05-05 12:33 46.74392 8.96404 29271 ft 514 kts 353°
2026-05-05 12:33 46.77902 8.95926 29880 ft 512 kts 352°
2026-05-05 12:34 46.85058 8.94947 29942 ft 513 kts 353°
2026-05-05 12:34 46.92114 8.93985 29915 ft 512 kts 353°
2026-05-05 12:35 46.99236 8.93009 29897 ft 514 kts 353°
2026-05-05 12:35 47.05152 8.92195 29896 ft 514 kts 354°
2026-05-05 12:36 47.12283 8.91213 29888 ft 515 kts 354°
2026-05-05 12:36 47.19429 8.90227 29886 ft 516 kts 354°
2026-05-05 12:37 47.26597 8.89440 29877 ft 517 kts
2026-05-05 12:37 47.33758 8.90325 29873 ft 516 kts 11°
2026-05-05 12:38 47.40765 8.92645 29880 ft 515 kts 14°
2026-05-05 12:38 47.47698 8.95043 29875 ft 514 kts 14°
2026-05-05 12:39 47.54674 8.97407 29884 ft 514 kts 14°
2026-05-05 12:39 47.61653 8.99735 29881 ft 514 kts 14°
2026-05-05 12:40 47.68632 9.02060 29864 ft 514 kts 14°
2026-05-05 12:40 47.75613 9.04396 29870 ft 514 kts 14°
2026-05-05 12:41 47.82581 9.06738 29873 ft 514 kts 14°
2026-05-05 12:41 47.89573 9.09095 29888 ft 518 kts 14°
2026-05-05 12:42 47.93066 9.10276 30117 ft 523 kts 14°
2026-05-05 12:42 47.96618 9.11477 30594 ft 522 kts 14°
2026-05-05 12:42 48.00143 9.12669 31182 ft 518 kts 14°
2026-05-05 12:42 48.03647 9.13857 31727 ft 516 kts 14°
2026-05-05 12:43 48.07147 9.15046 32206 ft 515 kts 14°
2026-05-05 12:43 48.10638 9.16233 32556 ft 516 kts 14°
2026-05-05 12:43 48.14147 9.17428 32921 ft 516 kts 14°
2026-05-05 12:43 48.17640 9.18700 33352 ft 515 kts 17°
2026-05-05 12:44 48.21050 9.20281 33783 ft 514 kts 19°
2026-05-05 12:44 48.24455 9.21963 33887 ft 519 kts 20°
2026-05-05 12:44 48.31297 9.25409 33847 ft 515 kts 19°
2026-05-05 12:45 48.38080 9.28784 33858 ft 512 kts 19°
2026-05-05 12:45 48.44857 9.32125 33845 ft 513 kts 19°
2026-05-05 12:46 48.51635 9.35472 33852 ft 513 kts 19°
2026-05-05 12:46 48.58438 9.38844 33847 ft 514 kts 19°
2026-05-05 12:47 48.65238 9.42226 33847 ft 515 kts 19°
2026-05-05 12:47 48.71938 9.45977 33846 ft 513 kts 27°
2026-05-05 12:48 48.78069 9.51344 33842 ft 511 kts 37°
2026-05-05 12:48 48.83871 9.57582 33835 ft 511 kts 38°
2026-05-05 12:49 48.89674 9.63856 33829 ft 512 kts 38°
2026-05-05 12:49 48.95496 9.70096 33797 ft 512 kts 37°
2026-05-05 12:50 49.01373 9.76375 33839 ft 513 kts 37°
2026-05-05 12:50 49.07185 9.82597 33830 ft 515 kts 37°
2026-05-05 12:51 49.13040 9.88890 33839 ft 516 kts 37°
2026-05-05 12:51 49.18909 9.95218 33826 ft 516 kts 37°
2026-05-05 12:52 49.24769 10.01556 33830 ft 516 kts 37°
2026-05-05 12:52 49.30636 10.07918 33829 ft 515 kts 37°
2026-05-05 12:53 49.36457 10.14251 33828 ft 515 kts 37°
2026-05-05 12:53 49.42345 10.20676 33831 ft 515 kts 37°
2026-05-05 12:54 49.51107 10.30272 33828 ft 516 kts 37°
2026-05-05 12:55 49.56922 10.36666 33794 ft 517 kts 37°
2026-05-05 12:55 49.62785 10.43132 33798 ft 519 kts 37°
2026-05-05 12:56 49.68656 10.49625 33813 ft 520 kts 37°
2026-05-05 12:56 49.74584 10.56070 33817 ft 521 kts 32°
2026-05-05 12:57 49.80955 10.61378 33822 ft 519 kts 26°
2026-05-05 12:57 49.87469 10.66407 32749 ft 531 kts 26°
2026-05-05 12:57 49.90765 10.68993 31957 ft 529 kts 26°
2026-05-05 12:58 49.94039 10.71595 31168 ft 527 kts 26°
2026-05-05 12:58 49.97277 10.74190 30660 ft 520 kts 27°
2026-05-05 12:58 50.00480 10.76763 30097 ft 514 kts 27°
2026-05-05 12:58 50.03639 10.79298 29502 ft 509 kts 27°
2026-05-05 12:59 50.06733 10.81778 28910 ft 503 kts 26°
2026-05-05 12:59 50.09901 10.84077 28341 ft 498 kts 22°
2026-05-05 12:59 50.13075 10.86160 27806 ft 492 kts 22°
2026-05-05 13:00 50.19351 10.90176 26734 ft 483 kts 21°
2026-05-05 13:00 50.22441 10.92170 26223 ft 478 kts 22°
2026-05-05 13:01 50.31531 10.98134 24696 ft 466 kts 22°
2026-05-05 13:01 50.34462 11.00068 24199 ft 463 kts 22°
2026-05-05 13:01 50.37420 11.02020 23701 ft 459 kts 22°
2026-05-05 13:01 50.40344 11.03973 23159 ft 457 kts 23°
2026-05-05 13:02 50.43230 11.06027 22599 ft 453 kts 24°
2026-05-05 13:02 50.46072 11.08115 22097 ft 449 kts 24°
2026-05-05 13:02 50.48896 11.10202 21600 ft 445 kts 24°
2026-05-05 13:02 50.51679 11.12248 21122 ft 441 kts 24°
2026-05-05 13:03 50.54449 11.14272 20652 ft 437 kts 24°
2026-05-05 13:03 50.57195 11.16274 20189 ft 433 kts 24°
2026-05-05 13:03 50.59919 11.18255 19726 ft 429 kts 24°
2026-05-05 13:03 50.62622 11.20227 19272 ft 427 kts 24°
2026-05-05 13:04 50.65310 11.22188 18811 ft 424 kts 24°
2026-05-05 13:04 50.67985 11.24129 18351 ft 422 kts 24°
2026-05-05 13:04 50.70610 11.26034 17874 ft 420 kts 24°
2026-05-05 13:04 50.73256 11.27953 17362 ft 417 kts 24°
2026-05-05 13:05 50.75886 11.29864 16866 ft 415 kts 24°
2026-05-05 13:05 50.78501 11.31768 16418 ft 412 kts 24°
2026-05-05 13:05 50.81091 11.33657 15959 ft 409 kts 24°
2026-05-05 13:05 50.83670 11.35541 15505 ft 407 kts 24°
2026-05-05 13:06 50.86227 11.37411 15054 ft 404 kts 24°
2026-05-05 13:06 50.88776 11.39277 14618 ft 402 kts 24°
2026-05-05 13:06 50.91311 11.41135 14164 ft 400 kts 24°
2026-05-05 13:06 50.93825 11.42981 13723 ft 398 kts 24°
2026-05-05 13:07 50.96333 11.44826 13228 ft 397 kts 24°
2026-05-05 13:07 50.98826 11.46661 12753 ft 394 kts 24°
2026-05-05 13:07 51.01315 11.48495 12301 ft 392 kts 24°
2026-05-05 13:07 51.03773 11.50307 11849 ft 390 kts 24°
2026-05-05 13:08 51.06234 11.52124 11410 ft 388 kts 24°
2026-05-05 13:08 51.08636 11.53899 11005 ft 384 kts 25°
2026-05-05 13:08 51.10869 11.56104 10835 ft 368 kts 43°
2026-05-05 13:08 51.12420 11.59238 10650 ft 354 kts 62°
2026-05-05 13:09 51.13510 11.62611 10493 ft 341 kts 64°
2026-05-05 13:09 51.14568 11.65922 10310 ft 331 kts 64°
2026-05-05 13:09 51.15601 11.69135 10146 ft 321 kts 64°
2026-05-05 13:09 51.16605 11.72242 9977 ft 310 kts 64°
2026-05-05 13:10 51.17578 11.75247 9825 ft 300 kts 64°
2026-05-05 13:10 51.18519 11.78147 9648 ft 291 kts 64°
2026-05-05 13:10 51.19445 11.80998 9516 ft 288 kts 64°
2026-05-05 13:10 51.20363 11.83821 9374 ft 287 kts 64°
2026-05-05 13:11 51.21281 11.86649 9223 ft 286 kts 63°
2026-05-05 13:11 51.22192 11.89457 9084 ft 285 kts 63°
2026-05-05 13:11 51.23047 11.92278 8902 ft 279 kts 73°
2026-05-05 13:11 51.23319 11.95306 8800 ft 277 kts 90°
2026-05-05 13:12 51.23414 11.98429 8653 ft 285 kts 88°
2026-05-05 13:12 51.23556 12.01598 8508 ft 285 kts 87°
2026-05-05 13:12 51.23704 12.04700 8357 ft 283 kts 87°
2026-05-05 13:12 51.23854 12.07820 8196 ft 281 kts 86°
2026-05-05 13:13 51.24002 12.10909 8050 ft 278 kts 87°
2026-05-05 13:13 51.24149 12.13976 7911 ft 276 kts 87°
2026-05-05 13:13 51.24325 12.17014 7759 ft 274 kts 81°
2026-05-05 13:13 51.24743 12.19965 7627 ft 273 kts 76°
2026-05-05 13:14 51.25253 12.22897 7486 ft 275 kts 75°
2026-05-05 13:14 51.25772 12.25855 7350 ft 277 kts 75°
2026-05-05 13:14 51.26280 12.28823 7088 ft 278 kts 75°
2026-05-05 13:14 51.26779 12.31801 6713 ft 277 kts 76°
2026-05-05 13:15 51.27264 12.34747 6458 ft 270 kts 76°
2026-05-05 13:15 51.27726 12.37587 6305 ft 260 kts 76°
2026-05-05 13:15 51.28173 12.40363 6133 ft 258 kts 76°
2026-05-05 13:15 51.28617 12.43124 5976 ft 255 kts 76°
2026-05-05 13:16 51.29052 12.45851 5820 ft 251 kts 76°
2026-05-05 13:16 51.29478 12.48521 5699 ft 245 kts 76°
2026-05-05 13:16 51.29876 12.51165 5588 ft 245 kts 78°
2026-05-05 13:16 51.30209 12.53859 5510 ft 248 kts 79°
2026-05-05 13:17 51.30533 12.56583 5420 ft 250 kts 79°
2026-05-05 13:17 51.30854 12.59310 5319 ft 249 kts 79°
2026-05-05 13:17 51.31171 12.62026 5226 ft 248 kts 79°
2026-05-05 13:17 51.31484 12.64727 5123 ft 247 kts 79°
2026-05-05 13:18 51.31794 12.67423 5021 ft 246 kts 79°
2026-05-05 13:18 51.32105 12.70103 4908 ft 243 kts 77°
2026-05-05 13:18 51.32738 12.72576 4792 ft 241 kts 53°
2026-05-05 13:18 51.33948 12.74388 4684 ft 239 kts 29°
2026-05-05 13:19 51.35512 12.75224 4580 ft 239 kts
2026-05-05 13:19 51.37153 12.75004 4498 ft 243 kts 344°
2026-05-05 13:19 51.38668 12.73817 4383 ft 245 kts 320°
2026-05-05 13:19 51.39764 12.71759 4307 ft 243 kts 300°
2026-05-05 13:20 51.40538 12.69357 4219 ft 243 kts 295°
2026-05-05 13:20 51.41257 12.66899 4118 ft 243 kts 295°
2026-05-05 13:20 51.41956 12.64429 4006 ft 243 kts 292°
2026-05-05 13:20 51.42543 12.61949 3891 ft 232 kts 290°
2026-05-05 13:21 51.42851 12.59525 3769 ft 214 kts 272°
2026-05-05 13:21 51.42849 12.57215 3702 ft 200 kts 269°
2026-05-05 13:21 51.42779 12.55042 3614 ft 194 kts 267°
2026-05-05 13:21 51.42684 12.52900 3506 ft 192 kts 267°
2026-05-05 13:22 51.42585 12.50772 3412 ft 192 kts 266°
2026-05-05 13:22 51.42484 12.48634 3297 ft 193 kts 266°
2026-05-05 13:22 51.42382 12.46475 3042 ft 194 kts 266°
2026-05-05 13:22 51.42282 12.44370 2777 ft 183 kts 267°
2026-05-05 13:23 51.42190 12.42417 2536 ft 175 kts 268°
2026-05-05 13:23 51.42100 12.40483 2352 ft 175 kts 268°
2026-05-05 13:23 51.42011 12.38572 2089 ft 166 kts 267°
2026-05-05 13:23 51.41928 12.36823 1891 ft 155 kts 268°
2026-05-05 13:24 51.41846 12.35054 1692 ft 163 kts 267°
2026-05-05 13:24 51.41761 12.33247 1470 ft 164 kts 267°
2026-05-05 13:24 51.41675 12.31435 1243 ft 162 kts 268°
2026-05-05 13:24 51.41579 12.29652 991 ft 159 kts 269°
2026-05-05 13:25 51.41503 12.27873 797 ft 163 kts 269°
2026-05-05 13:25 51.41450 12.26670 670 ft 163 kts 268°
2026-05-05 13:25 51.41366 12.24858 479 ft 160 kts 267°
2026-05-05 13:25 51.41280 12.23062 706 ft 175 kts 268°
2026-05-05 13:26 51.41208 12.20989 1713 ft 189 kts 266°
2026-05-05 13:26 51.41086 12.18828 2811 ft 203 kts 264°
2026-05-05 13:26 51.40835 12.16509 3377 ft 218 kts 258°
2026-05-05 13:26 51.40195 12.14463 3968 ft 210 kts 220°
2026-05-05 13:27 51.38850 12.13258 4206 ft 236 kts 193°
2026-05-05 13:27 51.37251 12.13139 4814 ft 229 kts 170°
2026-05-05 13:27 51.35783 12.14039 4973 ft 229 kts 145°
2026-05-05 13:27 51.34674 12.15856 4988 ft 229 kts 119°
2026-05-05 13:28 51.34147 12.18272 5014 ft 241 kts 95°
2026-05-05 13:28 51.34135 12.20972 5011 ft 244 kts 86°
2026-05-05 13:28 51.34261 12.23688 5009 ft 246 kts 85°
2026-05-05 13:28 51.34409 12.26446 4998 ft 246 kts 85°
2026-05-05 13:29 51.34556 12.29165 4996 ft 245 kts 85°
2026-05-05 13:29 51.34707 12.31881 4997 ft 245 kts 84°
2026-05-05 13:29 51.34860 12.34591 4999 ft 245 kts 84°
2026-05-05 13:29 51.35014 12.37299 4995 ft 244 kts 84°
2026-05-05 13:30 51.35166 12.39991 4933 ft 240 kts 84°
2026-05-05 13:30 51.35322 12.42626 4602 ft 235 kts 81°
2026-05-05 13:30 51.35834 12.45030 4251 ft 230 kts 56°
2026-05-05 13:30 51.36907 12.46845 3950 ft 221 kts 34°
2026-05-05 13:31 51.38281 12.47768 3698 ft 212 kts
2026-05-05 13:31 51.39712 12.47766 3395 ft 201 kts 352°
2026-05-05 13:31 51.40991 12.47001 3035 ft 195 kts 324°
2026-05-05 13:31 51.41861 12.45390 2702 ft 190 kts 302°
2026-05-05 13:32 51.42320 12.43444 2358 ft 186 kts 277°
2026-05-05 13:32 51.42262 12.41443 2033 ft 176 kts 262°
2026-05-05 13:32 51.42044 12.39600 1853 ft 165 kts 264°
2026-05-05 13:32 51.41927 12.37762 1908 ft 167 kts 267°
2026-05-05 13:33 51.41860 12.35901 1898 ft 168 kts 268°
2026-05-05 13:33 51.41782 12.34021 1688 ft 169 kts 268°
2026-05-05 13:33 51.41686 12.32147 1407 ft 167 kts 268°
2026-05-05 13:33 51.41606 12.30307 1088 ft 162 kts 268°
2026-05-05 13:34 51.41530 12.28517 873 ft 159 kts 268°
2026-05-05 13:34 51.41450 12.26720 668 ft 161 kts 267°
2026-05-05 13:34 51.41369 12.24961 485 ft 155 kts 268°
2026-05-05 13:34 51.41287 12.23163 469 ft 103 kts 266°
2026-05-05 13:35 51.41246 12.22271 464 ft 59 kts 266°
2026-05-05 13:35 51.41196 12.21843 461 ft 23 kts 246°
2026-05-05 13:35 51.41147 12.21709 460 ft 13 kts 236°
2026-05-05 13:35 51.41070 12.21666 463 ft 13 kts 150°
2026-05-05 13:36 51.41052 12.21792 465 ft 11 kts 87°
2026-05-05 13:36 51.41058 12.21916 464 ft 11 kts 85°
2026-05-05 13:36 51.41064 12.22042 463 ft 11 kts 85°
2026-05-05 13:36 51.41070 12.22168 464 ft 11 kts 85°
2026-05-05 13:37 51.41077 12.22326 463 ft 17 kts 86°
2026-05-05 13:37 51.41089 12.22569 465 ft 24 kts 85°
2026-05-05 13:37 51.41101 12.22832 469 ft 24 kts 86°
2026-05-05 13:37 51.41111 12.23054 474 ft 18 kts 85°
2026-05-05 13:38 51.41121 12.23256 474 ft 18 kts 85°
2026-05-05 13:38 51.41130 12.23457 480 ft 18 kts 85°
2026-05-05 13:38 51.41140 12.23659 478 ft 18 kts 85°
2026-05-05 13:38 51.41150 12.23862 473 ft 18 kts 85°
2026-05-05 13:39 51.41161 12.24065 469 ft 18 kts 85°
2026-05-05 13:39 51.41168 12.24199 472 ft 18 kts 85°
2026-05-05 13:39 51.41167 12.24340 473 ft 10 kts 114°
2026-05-05 13:39 51.41094 12.24431 470 ft 11 kts 114°
2026-05-05 13:40 51.41094 12.24547 473 ft 10 kts 86°
2026-05-05 13:40 51.41058 12.24638 471 ft 11 kts 156°
2026-05-05 13:40 51.41007 12.24653 467 ft 12 kts 174°
2026-05-05 13:40 51.40919 12.24665 470 ft 14 kts 175°
2026-05-05 13:41 51.40820 12.24676 468 ft 11 kts 175°
2026-05-05 13:41 51.40778 12.24652 467 ft 7 kts 238°
2026-05-05 13:41 51.40768 12.24576 467 ft 6 kts 265°
2026-05-05 13:41 51.40766 12.24525 467 ft 1 kts 265°
2026-05-05 13:42 51.40766 12.24517 467 ft 0 kts 265°